EW6030 Weather Reports


Display with metric or nautical units.
time (UTC)temp
F
wind
direction
speed
MPH
gust
MPH
rain 1hr
in
rain 24hr
in
rain mn
in
humidity
%
barometer
mb
20260503213022 70 65 3.0 0.0 0.00 0.00 0.00 42 1000.9
20260503211521 69 43 3.0 0.0 0.00 0.00 0.00 42 1001.1
20260503210020 70 53 3.0 0.0 0.00 0.00 0.00 41 1001.4
20260503204517 69 63 3.0 0.0 0.00 0.00 0.00 43 1001.6
20260503203035 68 64 3.0 0.0 0.00 0.00 0.00 43 1001.7
20260503201511 68 68 4.0 0.0 0.00 0.00 0.00 42 1002.0
20260503200012 68 56 3.0 0.0 0.00 0.00 0.00 43 1002.1
20260503194514 67 66 4.0 0.0 0.00 0.00 0.00 42 1002.3
20260503193005 67 55 5.0 0.0 0.00 0.00 0.00 42 1002.6
20260503191504 66 83 4.0 0.0 0.00 0.00 0.00 43 1002.8
20260503190004 66 94 5.0 0.0 0.00 0.00 0.00 42 1002.7
20260503184605 66 72 5.0 0.0 0.00 0.00 0.00 44 1003.0
20260503183057 65 61 5.0 0.0 0.00 0.00 0.00 46 1003.0
20260503181600 64 76 3.0 0.0 0.00 0.00 0.00 49 1003.3
20260503180054 63 58 4.0 0.0 0.00 0.00 0.00 49 1003.5
20260503174548 62 66 5.0 0.0 0.00 0.00 0.00 50 1003.8
20260503173047 63 87 4.0 0.0 0.00 0.00 0.00 47 1003.9
20260503171548 63 27 3.0 0.0 0.00 0.00 0.00 49 1004.0
20260503100104 50 73 0.0 0.0 0.00 0.00 0.00 53 1008.1
20260503081550 49 66 0.0 0.0 0.00 0.00 0.00 53 1009.2
20260503071533 48 55 0.0 0.0 0.00 0.00 0.00 54 1009.4
20260503054533 50 74 0.0 0.0 0.00 0.00 0.00 50 1010.2
20260503053035 50 63 0.0 0.0 0.00 0.00 0.00 50 1010.3
20260503051521 50 38 0.0 0.0 0.00 0.00 0.00 48 1010.5
20260503050020 50 19 0.0 0.0 0.00 0.00 0.00 48 1010.5
20260503044517 50 18 0.0 0.0 0.00 0.00 0.00 49 1010.6
20260503043022 50 55 0.0 0.0 0.00 0.00 0.00 49 1010.6
20260503041514 50 56 0.0 0.0 0.00 0.00 0.00 48 1010.8
20260503040018 50 55 0.0 0.0 0.00 0.00 0.00 49 1010.8
20260503034511 50 55 0.0 0.0 0.00 0.00 0.00 50 1011.0
20260503033010 50 52 0.0 0.0 0.00 0.00 0.00 50 1011.1
20260503031511 50 52 0.0 0.0 0.00 0.00 0.00 49 1011.1
20260503030009 51 52 0.0 0.0 0.00 0.00 0.00 47 1011.3
20260503024509 51 52 0.0 0.0 0.00 0.00 0.00 47 1011.3
20260503023007 51 52 0.0 0.0 0.00 0.00 0.00 49 1011.4
20260503021507 51 52 0.0 0.0 0.00 0.00 0.00 49 1011.3
20260503020008 51 52 0.0 0.0 0.00 0.00 0.00 48 1011.3
20260503014508 52 52 0.0 0.0 0.00 0.00 0.00 47 1011.2
20260503013007 53 52 0.0 0.0 0.00 0.00 0.00 47 1011.2
20260503011506 54 52 0.0 0.0 0.00 0.00 0.00 45 1011.1
20260503010006 55 52 0.0 0.0 0.00 0.00 0.00 43 1011.1
20260503004506 56 52 0.0 0.0 0.00 0.00 0.00 40 1011.0
20260503003005 57 52 0.0 0.0 0.00 0.00 0.00 38 1011.1
20260503001502 57 60 1.0 0.0 0.00 0.00 0.00 37 1011.2
20260503000001 58 46 0.0 0.0 0.00 0.00 0.00 35 1011.4
20260502234604 58 85 1.0 0.0 0.00 0.00 0.00 35 1011.6
20260502233059 59 73 1.0 0.0 0.00 0.00 0.00 34 1011.6
20260502231609 59 73 1.0 0.0 0.00 0.00 0.00 34 1011.7
20260502230057 59 54 1.0 0.0 0.00 0.00 0.00 35 1011.9
20260502224557 60 121 1.0 0.0 0.00 0.00 0.00 35 1012.0
20260502223054 60 95 2.0 0.0 0.00 0.00 0.00 32 1012.1
20260502221552 60 93 1.0 0.0 0.00 0.00 0.00 34 1012.1
20260502220051 58 63 1.0 0.0 0.00 0.00 0.00 33 1012.4
20260502214549 59 116 2.0 0.0 0.00 0.00 0.00 33 1012.5